#timestamp,LO_Frequency 
1444154415.8,286047001.4
1444154435.7,286047002.5
1444154455.7,286047001.1
1444154475.6,286046998.4
1444154495.5,286047000.1
1444154515.4,286047001.9
1444154535.4,286047000.9
1444154555.3,286047001.2
1444154575.2,286047001.2
1444154595.1,286046997.3
1444154615.1,286046998.1
1444154616.0,286046998.1
1444154635.9,286047004.4
1444154655.8,286046996.9
1444154675.7,286047002.4
1444154695.7,286046998.7
1444154715.6,286047001.1
1444154735.5,286047001.0
1444154755.4,286046998.4
1444154775.4,286047000.6
1444154795.3,286046998.3
1444154815.2,286047001.6
1444154835.1,286047000.3
1444154855.1,286046998.6
1444154856.0,286046998.6
1444154875.0,286047004.0
1444154875.9,286047004.0
1444154895.8,286046996.0
1444154915.8,286046996.6
1444154935.7,286046999.7
1444154955.6,286047000.5
1444154975.5,286047001.2
1444154995.5,286047000.2
1444155015.4,286047000.0
1444155035.3,286046998.6
1444155055.2,286047002.2
1444155075.2,286047001.2
1444155095.1,286046998.2
1444155115.0,286047002.8
1444155115.9,286047002.8
1444155135.9,286046995.2
1444155155.8,286047000.8
1444155175.7,286047000.3
1444155195.6,286047002.3
1444155215.6,286046998.5
1444155235.5,286047000.8
1444155255.4,286046998.7
1444155275.3,286046999.7
1444155295.3,286047001.3
1444155315.2,286047000.2
1444155335.1,286047000.1
1444155355.0,286046999.9
1444155356.0,286046999.9
1444155375.9,286047000.6
1444155395.8,286046999.3
1444155415.7,286046998.6
1444155435.6,286047000.1
1444155455.6,286047000.6
1444155475.5,286046999.6
1444155495.4,286046999.6
1444155515.3,286046997.0
1444155535.3,286047002.5
1444155555.2,286046998.3
1444155575.1,286046999.8
1444155595.0,286046999.9
1444155596.0,286046999.9
1444155615.9,286047002.1
1444155635.8,286046998.7
1444155655.7,286047002.3
1444155675.7,286047000.6
1444155695.6,286046998.6
1444155715.5,286046999.9
1444155735.4,286047002.5
1444155755.4,286046998.5
1444155775.3,286047002.7
1444155795.2,286047001.2
1444155815.1,286046996.5
1444155835.1,286047001.9
1444155836.0,286047001.9
1444155855.9,286046998.3
1444155875.8,286047001.0
1444155895.8,286047001.1
1444155915.7,286046998.8
1444155935.6,286047002.6
1444155955.5,286047002.1
1444155975.5,286046997.7
1444155995.4,286046998.9
1444156015.3,286047000.1
1444156035.2,286046996.7
1444156055.2,286047000.3
1444156075.1,286046998.2
1444156076.0,286046998.2
1444156095.0,286047001.4
1444156095.9,286047001.4
1444156115.9,286046998.3
1444156135.8,286046999.9
1444156155.7,286046999.9
1444156175.6,286047000.1
1444156195.6,286047002.8
1444156215.5,286047001.2
1444156235.4,286046996.7
1444156255.3,286047001.5
1444156275.3,286047000.3
1444156295.2,286047001.1
1444156315.1,286046996.8
1444156335.0,286047002.5
1444156336.0,286047002.5
1444156355.9,286046995.1
1444156375.8,286047000.2
1444156395.7,286047002.3
1444156415.6,286046998.5
1444156435.6,286047000.5
1444156455.5,286047000.7
1444156475.4,286046998.2
1444156495.4,286047002.1
1444156515.3,286047000.8
1444156535.2,286046999.1
1444156555.1,286046998.1
1444156575.1,286047001.8
1444156576.0,286047001.8
1444156595.9,286046996.9
1444156615.8,286046998.6
1444156635.7,286046998.2
1444156655.7,286047000.4
1444156675.6,286046999.4
1444156695.5,286046998.4
1444156715.4,286046999.9
1444156735.4,286047002.7
1444156755.3,286046996.5
1444156775.2,286047002.1
1444156795.1,286047001.7
1444156815.1,286046999.8
1444156816.0,286046999.8
1444156835.0,286047001.4
1444156835.9,286047001.4
1444156855.8,286047026.9
1444156875.8,286047032.4
1444156895.7,286047053.2
1444156915.6,286047032.4
1444156935.5,286047038.6
1444156955.5,286047025.0
1444156975.4,286047003.6
1444156995.3,286047016.1
1444157015.2,286047009.7
1444157035.2,286047010.1
1444157055.1,286047015.7
1444157075.0,286046998.1
1444157075.9,286046998.1
1444157095.9,286046994.3
1444157115.8,286046996.1
1444157135.7,286046998.6
1444157155.6,286046989.6
1444157175.6,286046995.4
1444157195.5,286046993.4
1444157215.4,286046999.7
1444157235.3,286046998.4
1444157255.3,286047005.4
1444157275.2,286046998.4
1444157295.1,286047002.9
1444157315.0,286047007.6
1444157316.0,286047007.6
1444157335.9,286046999.6
1444157355.8,286047002.1
1444157375.7,286047007.5
1444157395.7,286047009.0
1444157415.6,286047004.0
1444157435.5,286046997.8
1444157455.4,286047001.4
1444157475.4,286047003.3
1444157495.3,286047003.2
1444157515.2,286047003.2
1444157535.1,286047001.5
1444157555.1,286047002.5
1444157556.0,286047002.5
1444157575.9,286046998.9
1444157595.8,286047005.6
1444157615.7,286046996.6
1444157635.7,286047000.1
1444157655.6,286047007.5
1444157675.5,286047000.4
1444157695.4,286047003.3
1444157715.4,286047001.6
1444157735.3,286047005.6
1444157755.2,286047003.4
1444157775.2,286047008.6
1444157795.1,286047001.8
1444157796.0,286047001.8
1444157815.0,286046998.3
1444157815.9,286046998.3
1444157835.9,286047003.2
1444157855.8,286047008.8
1444157875.7,286046999.3
1444157895.6,286046996.0
1444157915.6,286046996.9
1444157935.5,286047008.8
1444157955.4,286047001.2
1444157975.3,286046998.9
1444157995.3,286047009.7
